Theta_e
313 315 315 313 312 311 311 312 312 312 313 313 313 313 312 311 311 313 313 315 314 314 315 315 318 316 319 335 343 341 341 342 346 349 348 347 347 345 345 343 341 340 338 336 336 336 335 336 338 338 338 339 342 344 343 343 343 343 343 343 342 342 342 341 341 341 341 341 341 341 341 340 340 340 340 340 340 339 339 339 339 338 337 337 337 336
314 315 315 313 313 312 312 314 315 314 313 312 311 311 311 310 311 312 313 314 314 314 315 315 317 316 317 328 340 340 338 342 347 349 348 347 346 345 344 343 341 339 336 335 335 334 334 334 336 337 339 339 341 341 341 342 342 342 343 342 342 342 342 341 341 341 341 341 341 341 340 340 340 340 339 340 340 339 340 340 339 338 337 337 336 336
314 314 314 313 313 314 314 314 316 315 314 313 311 311 311 311 311 313 315 314 314 313 315 317 315 316 317 323 334 338 337 342 346 348 348 346 346 345 344 343 340 339 338 336 336 335 334 334 335 337 337 337 339 337 336 340 341 341 342 342 342 342 341 341 341 340 340 340 340 340 340 339 339 339 338 339 339 339 338 339 339 338 337 337 336 335
314 313 313 314 314 315 315 315 315 315 315 314 313 312 311 311 310 313 318 316 314 314 317 318 315 316 317 321 332 336 336 340 343 345 346 344 345 344 342 341 339 339 339 338 337 336 335 335 336 337 335 335 336 334 332 336 340 341 340 340 340 340 340 339 339 339 339 339 339 339 338 337 336 337 337 337 338 338 337 337 337 337 337 337 336 336
313 313 313 313 313 315 315 315 315 315 314 313 313 312 310 311 311 313 317 317 314 315 320 318 312 316 321 325 333 338 339 341 342 344 345 343 343 341 340 340 339 339 340 340 340 338 338 337 336 335 333 332 333 332 331 333 339 341 339 339 340 340 339 338 338 338 338 337 336 336 336 336 336 337 337 337 337 338 338 337 337 337 337 336 336 335
312 313 313 313 313 313 313 314 314 313 314 313 313 312 310 312 312 313 316 316 312 312 318 316 311 315 323 329 337 343 344 344 342 343 344 343 342 342 343 342 340 341 340 340 340 340 340 338 335 333 333 334 332 332 332 333 338 340 339 338 339 339 339 339 338 338 337 336 336 336 336 336 336 336 337 338 338 338 337 337 336 337 336 336 336 336
312 313 313 313 314 313 312 313 311 312 312 312 314 314 311 311 313 315 314 313 313 312 316 316 314 316 321 330 341 344 344 344 342 343 343 343 343 343 343 342 341 341 340 340 340 340 340 339 337 335 334 334 332 332 333 336 339 340 339 339 339 339 339 339 339 339 338 338 338 338 338 338 337 337 337 337 336 335 334 334 335 334 334 335 335 335
312 313 313 313 313 312 312 312 310 311 311 311 316 316 314 313 314 315 313 314 317 317 317 315 317 320 320 330 342 343 344 344 342 343 343 342 342 342 341 340 340 340 339 340 339 339 339 339 338 337 336 334 333 334 335 336 337 338 339 339 339 339 339 339 339 339 339 338 338 338 338 338 337 336 335 334 333 333 334 334 334 334 334 334 334 335
312 313 313 312 313 312 311 312 310 310 310 311 313 315 316 315 315 316 314 317 319 316 316 314 316 318 317 328 341 342 345 345 343 343 342 341 341 341 340 338 338 339 338 339 339 339 338 337 337 337 336 336 335 336 336 334 334 335 337 337 337 337 337 337 337 337 337 336 336 337 336 336 335 335 334 334 334 333 333 333 333 333 333 333 333 334
312 312 313 311 311 312 311 311 311 309 310 311 312 315 315 314 317 317 315 317 317 316 316 315 316 316 316 331 344 344 346 344 343 342 340 340 339 339 339 337 338 339 339 338 338 338 337 336 337 336 336 336 336 336 335 335 334 335 335 334 333 333 333 333 333 334 334 334 335 334 334 334 334 334 334 334 333 332 332 332 332 332 332 332 332 332
312 313 313 311 311 311 311 311 310 309 311 311 313 314 312 315 319 317 320 322 317 318 319 314 316 317 318 332 343 344 344 342 341 342 341 340 339 339 338 338 340 340 339 337 336 336 336 335 335 335 334 334 334 334 333 333 332 332 332 331 330 330 331 331 332 332 332 332 333 333 333 333 332 333 333 332 332 332 332 332 331 331 331 331 331 330
312 313 312 312 312 311 311 311 310 311 311 311 313 312 312 320 320 312 317 320 315 319 323 316 314 314 316 327 339 344 343 340 340 342 341 340 340 339 339 339 340 338 336 335 334 334 333 333 332 332 332 331 332 332 331 331 330 329 329 329 329 329 329 330 330 330 330 330 331 330 331 331 331 331 332 331 331 331 332 331 330 331 331 331 330 329
313 312 312 312 314 312 310 311 310 310 311 310 312 313 313 318 317 311 316 320 319 322 325 322 314 310 317 329 339 344 342 339 341 341 340 341 340 339 339 340 338 335 335 334 333 333 331 331 331 330 330 330 330 330 329 329 328 328 328 327 327 327 327 327 328 328 328 329 329 328 329 329 329 330 330 330 330 331 332 331 330 330 330 330 329 328
314 313 312 312 314 313 310 310 310 310 311 310 311 314 315 316 315 314 318 321 321 320 320 319 311 314 330 338 340 343 341 340 343 341 340 339 339 339 338 337 335 333 333 332 331 331 330 330 330 329 329 329 328 328 328 328 327 327 327 326 326 326 326 326 326 326 326 326 326 326 326 327 328 328 328 329 330 331 331 331 330 330 330 329 329 329
315 316 315 313 313 314 311 310 311 311 312 310 312 317 317 320 321 318 319 320 319 318 319 319 317 326 342 343 339 340 340 341 342 339 338 337 336 337 335 334 333 332 331 330 330 330 329 329 329 328 328 328 327 327 327 326 326 326 326 326 325 325 325 325 325 325 325 325 325 325 325 326 327 327 328 329 330 330 330 330 329 329 329 329 328 329
313 316 317 315 314 315 312 311 311 311 312 310 314 316 314 321 326 320 324 330 328 322 321 329 335 337 342 340 337 339 340 340 339 338 338 338 335 334 333 332 332 330 329 329 328 328 327 327 327 327 327 326 326 326 325 325 325 325 325 325 325 324 324 324 324 325 325 324 324 324 324 325 326 327 328 329 329 329 329 329 328 329 328 328 328 329
314 317 318 313 314 315 312 313 311 311 316 314 312 313 312 318 324 320 319 324 328 324 322 333 344 343 341 341 338 338 339 339 339 338 337 336 334 333 332 332 330 329 328 327 327 327 326 326 326 326 326 325 324 324 324 324 324 324 325 324 324 323 323 324 324 324 323 323 323 324 325 326 327 328 329 329 329 328 328 328 328 328 328 328 328 328
320 322 321 313 314 315 312 314 312 312 319 316 310 312 314 313 321 329 325 319 323 328 329 336 346 345 345 344 339 338 339 339 338 337 336 334 333 333 331 329 329 328 327 326 326 325 325 325 324 324 324 323 323 323 323 323 323 323 324 324 324 323 323 323 322 322 322 323 324 325 326 327 328 328 328 328 328 328 328 327 327 327 327 327 328 328
320 320 321 315 313 315 312 313 314 313 315 315 312 315 317 316 319 325 324 320 319 326 335 341 343 344 344 341 339 340 339 338 337 336 335 334 332 331 330 328 327 326 326 325 325 324 324 323 323 323 323 322 322 322 322 323 322 323 323 323 323 322 322 321 321 322 323 323 324 325 326 326 327 327 326 326 326 326 326 326 326 326 326 327 327 327
319 319 322 319 313 314 313 312 315 314 313 314 315 313 317 323 322 317 318 321 318 323 336 343 342 343 342 337 338 340 338 337 336 334 334 332 331 329 328 327 326 325 325 324 323 323 323 322 322 322 322 321 321 321 322 322 322 322 323 322 322 321 321 321 322 323 323 322 322 323 324 324 324 324 324 324 324 324 324 324 325 325 325 326 327 327
316 316 323 326 316 311 315 314 314 314 315 314 315 315 314 314 315 316 318 319 319 325 336 341 342 342 338 337 338 338 336 335 334 333 332 330 329 328 327 326 325 324 323 323 322 322 321 321 321 321 321 321 321 321 321 321 321 322 322 321 321 320 320 321 322 322 321 320 320 320 321 321 321 321 321 322 322 322 323 323 324 324 325 326 326 326
317 318 324 327 318 312 315 316 314 315 317 317 317 318 317 315 315 315 317 320 322 327 333 337 341 340 335 335 337 336 334 332 331 331 330 329 328 327 326 325 324 323 323 322 322 322 321 321 321 321 322 321 321 321 320 321 321 322 322 321 320 321 321 321 321 320 319 318 319 319 319 319 319 318 318 319 320 320 321 322 323 324 324 324 325 325
326 324 320 321 322 319 316 314 315 315 314 315 316 317 318 322 319 313 321 330 321 318 328 337 342 340 334 333 335 335 332 331 329 329 328 328 327 325 325 323 322 322 322 322 322 321 320 320 321 321 321 321 320 320 320 321 321 320 320 321 321 321 321 320 318 317 317 318 317 317 317 317 317 317 317 317 317 318 320 321 322 322 322 321 323 323
326 322 316 317 323 326 320 314 314 314 313 314 315 315 316 321 320 317 331 339 321 316 328 338 342 340 335 333 334 333 330 329 328 328 327 327 325 324 323 322 321 321 322 322 321 320 319 320 320 320 320 320 320 319 320 320 320 320 320 321 320 319 318 317 317 316 316 317 316 316 316 316 315 315 316 315 316 316 318 320 320 321 320 319 320 321
319 321 321 320 319 319 319 314 312 312 313 317 320 316 313 317 319 318 324 325 317 320 327 333 339 339 335 333 333 331 329 328 328 327 326 325 323 323 322 321 321 321 321 322 322 320 319 319 320 320 319 319 319 319 320 320 320 320 320 319 318 317 316 316 316 316 316 316 316 315 315 314 314 314 314 314 314 314 316 318 318 318 318 317 317 318
320 326 329 329 326 324 326 327 328 323 314 316 321 317 314 316 315 318 322 318 313 323 334 337 339 337 334 333 332 330 330 329 328 326 324 323 322 321 321 320 320 320 321 321 321 320 320 319 319 319 319 319 319 319 320 320 320 319 318 317 317 316 316 316 316 316 315 315 315 314 314 314 313 313 312 312 313 313 314 315 316 316 316 315 316 317
326 326 328 334 333 333 336 334 331 325 316 313 315 314 315 318 318 321 325 322 320 331 343 341 336 337 336 334 333 331 329 328 327 325 323 322 321 321 320 320 320 320 320 320 320 320 321 320 319 318 319 319 319 319 320 319 318 318 317 316 316 316 316 316 315 315 315 315 314 314 313 313 312 311 311 311 311 312 312 312 313 314 314 314 316 316
326 320 322 331 329 327 329 326 321 321 321 321 322 325 326 324 322 317 320 328 329 330 337 335 334 338 337 334 333 331 329 327 326 324 323 321 321 320 320 319 319 320 320 320 320 321 321 321 319 318 319 319 319 319 319 318 317 316 316 316 316 316 315 315 315 315 315 314 314 313 313 312 311 310 310 310 310 311 311 311 311 312 312 314 314 314
331 324 322 323 324 324 324 323 324 325 325 327 331 335 336 335 330 321 324 335 330 321 331 334 334 337 335 332 331 329 327 326 324 322 322 321 320 319 319 319 319 319 320 320 321 321 322 321 319 318 318 318 318 318 317 317 316 316 315 315 315 315 315 314 314 314 314 313 313 312 312 311 310 309 309 309 309 309 309 309 309 309 311 312 312 312
331 331 327 323 325 327 325 324 327 327 328 330 330 330 333 337 335 327 327 335 331 328 336 335 332 335 334 330 329 326 325 324 322 321 321 320 320 319 318 319 319 319 319 320 321 322 322 320 318 318 318 318 317 317 316 316 315 314 314 314 314 314 314 314 314 313 313 313 312 311 310 309 309 308 308 308 307 307 307 307 307 308 308 309 309 310
325 325 328 334 331 327 328 329 330 330 332 333 332 329 332 339 340 335 334 338 339 337 334 332 334 335 331 327 326 324 323 322 321 321 320 320 319 318 318 319 319 319 320 320 321 321 321 319 317 316 317 316 316 316 315 315 314 313 313 313 313 314 313 313 313 313 312 312 311 311 310 309 308 308 307 307 306 306 305 305 306 306 307 307 308 308
335 329 330 337 333 327 330 331 331 334 334 337 338 332 330 336 339 335 332 335 339 337 332 333 335 333 328 326 324 323 322 322 321 321 320 319 318 318 319 319 319 319 320 320 319 320 320 318 316 316 315 315 315 315 314 313 313 312 313 313 313 313 313 313 312 312 311 311 310 309 309 308 308 307 307 306 305 305 304 304 305 305 305 306 306 306
337 336 332 331 330 328 328 331 337 338 332 334 335 327 325 330 333 333 331 330 333 333 331 332 333 330 327 325 324 324 323 321 321 320 320 319 318 318 318 319 319 319 319 318 316 315 315 314 314 315 314 314 314 314 313 313 312 312 312 312 312 312 312 311 311 311 310 309 309 308 308 308 307 307 306 305 304 304 304 304 304 304 304 304 305 306
332 334 332 331 334 331 329 333 336 332 327 326 326 324 325 327 331 335 333 329 330 331 331 331 329 327 326 324 324 324 322 321 321 320 319 318 318 318 319 318 318 317 315 314 313 312 311 311 312 313 314 314 314 313 313 312 311 312 311 311 311 310 310 310 309 309 308 308 307 307 307 307 306 306 305 305 304 304 304 304 303 303 303 303 305 306
332 332 330 331 335 332 331 333 329 325 327 326 323 325 327 325 326 330 328 326 328 330 331 331 328 325 325 324 323 322 321 320 320 319 319 318 318 319 319 318 317 315 313 312 311 311 310 310 312 313 313 313 313 312 312 311 311 311 311 310 310 309 308 308 307 306 306 306 306 306 306 306 306 305 305 304 303 303 303 303 302 302 302 302 303 304
330 331 330 329 328 327 330 332 327 323 324 323 322 325 327 324 325 330 331 327 325 327 329 328 326 324 324 322 321 320 319 319 319 319 318 317 317 318 318 317 316 313 312 311 310 310 310 311 312 312 313 312 312 311 311 310 310 310 309 309 308 307 306 305 304 304 304 304 305 305 305 305 304 304 303 302 301 301 301 301 301 301 301 302 302 302
333 334 331 327 325 326 330 330 326 323 323 324 326 327 327 326 326 330 333 328 324 327 327 325 324 324 322 321 320 319 318 319 320 319 317 316 317 316 315 314 313 311 310 310 310 311 311 311 312 312 312 312 311 311 310 310 310 309 308 308 306 305 305 304 303 303 303 303 303 303 303 303 302 301 301 300 300 300 299 299 299 300 300 301 300 300
332 332 330 327 323 325 331 329 326 329 330 329 329 327 327 329 325 324 330 329 325 326 326 323 324 323 321 320 319 318 318 320 320 319 316 315 314 313 312 310 309 309 309 309 310 311 310 311 312 311 311 311 310 310 310 309 309 308 307 306 305 304 304 303 303 303 302 302 302 302 302 302 301 301 301 301 301 300 300 299 299 299 299 299 299 299
326 327 333 333 325 324 331 332 329 331 331 327 327 325 325 328 325 324 331 333 327 325 325 323 322 321 320 320 319 318 320 321 320 318 315 312 311 310 310 308 307 308 309 310 311 311 310 311 311 311 311 310 310 309 309 308 308 307 305 305 304 303 302 302 302 302 302 302 302 302 302 302 302 302 301 301 301 301 301 300 299 299 298 299 298 298
326 328 332 333 327 326 332 332 329 329 327 323 323 324 325 327 326 326 332 333 326 325 325 322 321 321 319 319 318 319 321 320 319 316 312 310 309 308 308 307 307 307 308 309 310 310 310 311 310 310 310 309 309 308 307 306 306 305 303 303 302 302 302 301 301 301 300 301 301 301 301 301 301 301 301 301 301 301 301 301 300 299 298 298 298 298
325 327 327 327 327 328 331 331 328 328 327 323 322 324 325 327 328 329 333 331 325 324 323 320 320 320 318 318 319 320 319 317 315 312 309 308 308 307 306 306 307 307 307 308 309 309 309 310 310 310 309 308 308 306 304 304 304 303 303 303 302 302 302 301 299 298 299 300 300 300 301 301 301 301 301 301 300 300 300 300 300 299 298 298 298 298
324 323 322 324 325 324 327 329 327 325 325 324 324 322 321 325 331 331 328 324 322 322 320 319 319 319 318 318 317 316 315 313 311 309 308 307 307 306 305 305 306 306 306 307 307 308 309 309 309 309 308 308 307 305 304 304 303 303 303 303 302 303 301 298 296 296 297 297 298 299 300 300 301 301 301 301 300 300 300 300 300 299 298 298 298 298
324 324 323 323 322 322 325 327 325 324 323 322 324 323 322 326 330 325 320 320 321 320 318 318 318 316 315 314 313 312 311 310 308 308 307 306 306 305 304 304 304 304 305 305 306 307 307 307 307 307 308 308 307 306 305 304 304 303 303 302 302 302 299 296 296 296 296 296 296 297 298 298 299 300 301 300 299 299 299 300 300 299 298 298 298 297
323 325 326 324 322 325 329 326 323 323 321 321 325 326 325 325 323 319 318 320 319 317 317 317 314 312 312 312 311 310 309 308 307 306 306 306 306 305 304 304 304 303 304 304 304 306 306 305 305 305 306 307 306 305 305 304 303 302 301 301 302 301 298 297 297 297 296 296 296 296 296 296 296 297 298 298 297 297 298 299 299 298 298 298 298 297
321 322 324 321 317 321 325 323 319 319 318 319 322 322 320 319 317 316 318 319 317 317 316 314 312 311 311 311 310 309 308 307 306 306 306 306 306 305 304 304 304 303 304 304 304 305 305 304 304 304 304 305 305 304 304 303 302 300 299 300 302 301 299 298 298 298 297 297 297 296 296 296 295 295 295 295 295 296 297 297 298 298 298 298 298 297
316 315 318 320 317 317 320 318 317 317 316 316 317 316 316 317 316 316 316 316 315 315 313 311 311 311 311 310 310 309 307 306 306 306 306 306 306 305 304 304 304 303 303 303 303 304 304 303 303 303 303 303 303 303 302 302 301 299 298 299 301 300 299 299 298 298 297 297 297 297 297 296 295 295 295 295 295 295 295 296 296 297 297 297 297 297
314 315 318 320 319 318 319 318 316 316 315 314 314 313 314 314 314 313 313 313 312 312 311 311 311 311 310 310 308 307 306 305 305 305 305 306 306 305 304 304 304 303 303 303 303 303 303 303 302 302 302 302 302 302 301 301 300 298 298 299 300 300 300 299 299 298 298 297 297 297 297 296 296 296 295 295 295 295 295 295 295 296 296 297 297 297
317 318 319 319 318 318 319 318 316 315 313 313 313 312 312 312 311 311 311 310 310 310 310 310 310 310 310 308 307 306 305 305 305 305 305 305 305 304 304 304 304 303 303 303 303 303 303 302 302 302 302 302 302 301 301 301 300 299 299 300 301 301 300 300 299 298 298 297 297 297 297 297 296 296 296 296 295 295 295 295 295 295 295 296 296 296
319 320 318 317 318 318 318 317 315 315 314 312 312 311 310 310 310 310 310 309 310 310 310 309 309 309 308 307 306 306 306 306 305 305 306 306 305 304 304 304 303 303 303 303 303 303 303 303 303 302 302 302 302 302 301 301 300 300 300 300 300 301 301 300 299 299 298 298 297 297 297 297 297 296 296 296 295 295 295 295 295 295 295 295 296 296
321 320 317 317 319 319 319 317 315 316 315 312 311 310 310 309 309 309 309 309 309 309 309 309 308 307 306 306 305 305 305 306 305 304 305 306 305 304 305 304 303 303 303 303 303 303 303 303 302 302 302 302 302 302 301 301 301 301 301 301 301 301 301 300 300 299 298 298 298 297 297 297 296 296 296 296 296 295 295 295 295 295 295 295 296 296
319 317 315 317 319 318 317 315 314 314 313 311 310 310 309 309 309 309 309 308 308 308 308 308 307 306 305 304 303 303 303 304 303 304 304 304 304 304 304 304 303 303 303 303 303 302 302 302 302 301 301 301 301 301 301 301 301 301 301 301 301 301 301 301 300 299 299 299 298 298 298 297 297 296 296 296 296 296 295 295 295 295 295 295 295 295
Wind_Speed
5 4 5 6 6 7 8 8 8 8 6 5 3 2 4 4 5 5 4 8 6 6 8 8 9 8 7 12 14 11 8 10 14 14 13 12 11 11 11 11 10 8 7 9 13 15 17 18 20 21 18 16 19 22 21 20 19 19 18 17 15 13 12 12 13 13 11 10 10 9 9 8 7 8 9 10 10 10 9 9 10 11 12 14 15 16
5 6 7 7 8 8 8 9 8 7 6 4 2 2 4 4 5 6 5 8 6 6 8 7 8 9 6 11 14 12 7 9 14 15 15 13 12 11 12 12 9 7 5 7 10 11 13 15 16 18 15 11 13 16 19 20 19 18 17 16 14 12 11 11 10 9 9 8 7 6 6 5 6 8 9 10 10 9 9 9 11 13 14 16 17 17
5 7 7 7 7 7 7 8 9 8 7 5 2 2 4 3 3 6 6 7 6 6 7 7 8 10 6 9 13 16 12 10 14 17 17 16 14 13 12 12 10 9 7 6 7 8 11 13 14 14 12 10 11 10 10 15 18 18 16 14 13 11 10 9 8 8 7 6 4 4 3 3 6 8 9 10 10 9 9 9 12 14 14 16 18 18
5 5 8 8 6 7 6 6 8 7 6 4 3 3 5 4 1 4 6 6 8 7 4 7 8 8 2 6 9 15 16 12 11 11 12 12 14 14 13 12 11 12 11 8 8 8 11 14 13 12 10 10 15 13 8 12 17 17 14 13 13 11 9 8 7 6 5 4 4 4 4 4 5 6 7 9 9 10 10 10 14 16 15 16 17 18
3 3 8 8 7 9 6 5 7 6 5 5 5 6 8 6 4 5 5 6 6 5 2 7 4 6 1 7 8 8 11 11 8 8 9 7 10 13 12 11 11 12 11 11 10 9 10 14 13 12 11 11 16 16 12 13 16 16 13 13 12 10 8 6 4 4 2 2 3 4 4 4 5 5 6 7 9 10 10 10 13 14 15 15 16 18
5 4 9 9 8 8 7 7 6 7 5 5 6 11 12 7 5 6 5 5 3 5 3 6 5 6 3 7 10 6 7 9 8 9 10 9 10 11 10 10 9 9 9 10 9 9 11 15 16 14 12 12 14 14 13 13 14 16 14 13 11 9 7 4 3 2 1 1 1 2 2 2 4 6 7 8 9 10 9 10 11 11 11 12 13 15
5 6 9 11 9 8 8 8 7 8 5 4 6 11 11 7 6 7 6 3 2 5 5 6 7 3 2 4 11 11 11 10 9 9 10 10 9 9 8 9 9 9 8 8 8 8 11 15 17 16 16 16 16 15 14 13 15 15 13 12 11 9 7 6 4 3 2 3 3 4 5 5 4 5 7 8 8 10 9 9 10 11 10 11 12 13
8 9 10 11 10 9 8 8 9 9 6 6 6 7 7 7 8 8 7 5 5 3 2 4 6 3 0 4 9 14 15 12 10 10 9 9 9 8 8 9 11 10 9 9 8 8 10 14 16 17 18 19 17 16 16 16 16 15 13 12 10 9 8 6 5 4 3 3 2 2 2 2 3 4 5 7 8 9 9 9 10 11 12 12 12 13
9 11 12 13 10 8 8 9 11 9 7 9 7 6 6 8 8 7 7 6 4 0 3 6 4 4 1 3 5 11 14 13 12 12 12 10 10 9 9 10 10 9 8 9 8 9 11 15 17 18 19 19 18 17 16 15 14 12 11 11 12 13 12 11 9 7 5 4 3 3 3 3 3 4 6 7 8 9 9 9 9 10 11 12 13 13
7 10 11 12 10 8 9 10 11 10 8 8 6 5 3 4 4 4 6 5 1 1 4 8 5 4 2 3 5 8 10 13 11 10 11 10 10 10 9 10 9 8 8 8 9 10 13 16 18 19 20 20 20 19 17 16 14 12 13 15 16 17 16 15 13 12 10 8 7 7 7 7 6 5 5 6 7 8 9 10 9 10 11 13 14 14
6 8 8 8 8 9 10 10 10 11 11 6 3 5 3 1 1 1 1 2 3 2 7 9 7 5 3 4 8 7 7 13 13 9 9 9 10 10 9 10 9 8 8 8 9 11 14 17 20 22 21 21 21 21 20 20 19 18 19 19 20 18 17 15 14 12 12 10 10 10 9 8 8 7 7 8 9 10 10 11 12 13 13 13 14 15
8 7 7 6 8 10 9 8 8 10 11 7 3 4 2 3 3 2 3 2 3 5 7 7 7 6 4 5 7 2 2 13 17 15 15 14 11 10 9 9 8 8 9 9 9 10 12 15 17 20 20 20 21 22 22 21 20 20 20 19 20 19 16 15 13 12 11 10 10 9 8 8 8 8 8 9 10 10 11 13 14 14 14 14 14 16
8 7 6 5 8 11 9 7 6 7 9 8 4 4 4 1 1 1 2 1 3 6 7 4 6 4 2 3 3 4 4 11 11 13 18 17 14 12 10 9 8 8 9 9 9 9 9 11 13 16 18 18 19 20 21 21 19 19 19 18 19 18 16 14 13 12 11 10 10 9 8 8 8 8 8 9 10 10 11 13 14 14 14 15 17 18
6 5 5 7 7 10 11 7 6 6 7 8 6 5 5 3 2 3 3 1 2 5 6 3 6 4 2 1 6 6 8 11 5 6 11 13 13 12 10 9 9 9 9 8 9 8 8 10 13 15 17 17 17 18 20 20 19 19 18 17 17 17 15 14 13 12 11 10 10 9 8 8 8 8 9 8 10 10 10 12 13 13 13 15 17 19
7 6 6 8 5 8 12 10 8 7 5 6 5 6 5 5 5 3 4 3 3 4 4 2 2 2 1 1 6 2 8 12 9 8 9 11 11 10 9 10 9 9 8 8 9 9 9 13 15 16 17 17 18 18 19 19 18 18 17 16 16 16 14 14 14 13 12 12 10 9 8 8 8 9 9 9 9 9 9 10 11 12 13 15 17 18
8 7 6 7 6 8 11 9 8 8 5 4 4 6 4 5 5 2 4 6 4 2 2 3 1 1 1 2 5 6 10 11 11 10 10 11 10 10 9 9 9 9 8 9 9 9 11 14 16 17 17 17 18 19 18 18 17 16 15 15 15 15 14 14 13 13 13 12 10 9 8 8 8 9 9 9 10 10 9 9 10 11 13 15 16 17
6 6 5 5 7 9 11 10 8 8 6 3 3 5 5 5 7 3 2 3 4 4 1 1 2 0 1 3 6 9 10 10 11 10 8 9 10 10 9 8 8 8 8 9 9 9 11 14 16 17 17 18 19 20 19 17 14 13 13 13 15 15 14 13 13 12 11 10 10 9 9 9 9 10 11 10 10 11 10 10 11 12 14 15 16 17
5 4 6 7 8 9 9 11 9 7 6 5 5 6 3 4 3 3 2 1 3 4 2 1 4 4 2 1 4 9 10 8 9 9 8 8 8 8 7 8 9 9 9 9 10 10 11 14 16 18 19 19 20 19 18 14 10 8 10 12 15 15 15 13 13 12 11 11 11 11 12 12 12 12 12 12 11 11 11 13 14 15 16 16 16 17
3 2 5 6 9 7 4 8 7 5 2 4 6 5 4 4 1 1 3 2 2 3 1 0 4 3 1 2 6 12 11 9 9 9 9 8 7 7 7 9 9 9 9 9 9 8 9 13 17 18 19 20 19 18 15 12 9 8 11 14 16 15 14 13 12 12 13 13 14 14 14 14 15 14 14 14 14 13 14 16 16 17 17 17 18 19
1 1 3 5 7 7 4 5 7 5 1 3 3 3 2 4 4 3 3 3 4 3 1 2 3 3 0 2 8 13 12 12 11 9 8 8 6 6 6 7 8 8 8 7 7 7 9 14 17 19 20 20 19 17 15 13 10 10 14 16 15 15 13 12 12 13 15 15 15 16 15 15 14 14 14 14 13 14 15 16 17 18 19 19 19 20
0 2 2 5 3 6 5 5 7 7 3 3 3 2 1 2 2 2 2 2 4 4 3 4 2 4 1 1 6 10 10 10 11 10 8 7 7 6 6 6 6 7 7 7 7 7 9 14 18 19 20 19 18 16 12 11 11 13 16 16 15 14 13 12 13 14 15 14 15 16 16 15 14 13 13 13 13 14 14 14 16 17 18 19 20 21
2 3 3 3 1 5 5 4 7 10 7 6 4 4 4 4 3 3 1 2 2 5 5 5 4 4 2 1 5 10 10 10 12 11 9 8 8 7 5 6 6 6 7 6 6 7 9 13 16 17 17 17 15 13 11 13 15 16 16 15 13 13 12 14 15 15 14 14 15 16 16 16 15 15 14 13 13 14 14 15 15 15 17 19 19 19
3 3 3 3 3 5 5 5 7 10 8 7 4 4 4 4 4 5 3 4 0 3 3 4 3 3 3 2 6 10 10 11 12 12 11 9 9 8 7 7 7 6 6 6 6 7 10 13 15 16 17 15 14 13 12 15 17 16 14 13 12 13 14 15 16 15 15 16 16 17 17 17 16 16 16 15 15 15 15 15 14 15 18 20 19 18
3 3 3 2 3 3 5 5 4 5 7 6 3 4 5 4 4 5 5 4 3 3 3 3 1 2 2 1 7 9 9 10 10 11 12 10 8 9 9 8 7 7 7 6 6 8 11 13 14 16 16 14 14 12 12 15 16 14 13 13 15 16 16 16 16 16 16 16 17 18 18 18 18 17 17 17 17 17 16 15 14 16 20 21 21 20
4 3 2 2 0 3 4 2 3 2 3 3 3 4 5 5 6 4 2 3 3 3 5 5 2 1 1 4 9 11 11 11 9 10 12 10 8 9 9 8 7 7 6 6 6 7 9 11 11 13 14 14 12 11 12 15 14 14 16 17 18 18 17 17 17 18 18 18 18 18 19 19 19 18 18 18 18 19 19 18 17 19 20 22 23 23
5 3 3 4 4 3 3 4 5 4 3 1 2 4 5 6 7 4 2 4 4 2 3 5 4 3 4 7 11 13 13 12 11 11 10 10 10 9 9 8 6 6 7 7 7 7 8 9 10 12 13 13 12 13 15 14 15 19 21 20 19 18 18 18 19 19 19 18 19 19 20 20 18 18 18 18 18 19 21 21 20 21 22 23 25 26
2 2 3 6 6 6 5 4 3 4 4 2 2 3 4 5 6 5 4 4 5 3 3 2 8 10 8 10 12 12 13 13 12 13 12 10 10 9 9 8 6 6 7 7 7 6 7 8 9 11 13 13 13 15 15 16 19 22 22 20 19 19 18 18 18 18 18 18 19 20 20 19 18 18 18 18 19 20 21 23 23 23 24 25 25 26
4 3 4 6 7 7 5 2 4 7 6 3 3 2 3 4 5 6 3 4 6 6 1 4 13 15 11 12 13 13 14 15 13 13 13 11 10 9 8 9 8 8 8 7 7 7 6 6 7 9 12 13 14 14 16 19 22 22 21 19 18 18 17 18 18 19 18 19 20 20 19 18 18 19 19 19 20 22 23 24 25 25 25 25 26 27
5 3 4 5 6 5 6 7 8 9 6 5 7 5 5 4 5 5 5 6 7 6 6 11 16 15 14 14 14 15 15 15 14 13 12 11 11 10 11 11 10 8 8 9 8 6 5 4 6 9 12 12 12 14 19 22 21 21 21 19 18 17 18 19 20 19 20 20 20 20 19 19 20 20 21 21 22 23 24 24 25 25 26 26 27 28
4 2 4 4 5 5 6 7 9 9 6 5 7 6 5 4 4 4 5 5 3 2 9 17 14 8 9 11 12 12 11 11 11 11 11 12 12 12 12 11 9 8 8 9 7 5 4 4 7 10 12 11 13 19 22 22 20 21 20 19 19 19 19 19 20 20 20 21 20 20 20 22 23 23 24 24 23 23 24 24 25 25 26 27 27 28
3 3 3 4 5 5 6 5 8 9 8 6 6 8 9 7 6 4 1 3 5 4 10 16 10 4 5 7 9 10 10 12 12 12 12 12 13 13 12 10 9 8 8 8 6 4 3 5 9 11 12 14 20 23 23 21 21 21 20 19 20 20 20 21 21 21 21 20 19 19 21 23 24 25 25 24 24 24 24 25 26 27 28 28 29 29
3 2 1 5 5 2 6 3 6 8 8 7 6 8 9 7 4 3 3 1 5 10 13 12 8 5 7 10 10 9 12 14 14 13 12 11 11 13 12 10 9 9 8 6 4 4 3 5 9 12 15 20 23 24 24 23 22 21 21 20 20 20 21 21 21 21 21 20 20 20 22 23 24 24 24 23 24 24 24 25 27 28 29 29 30 30
3 4 2 4 5 1 6 2 5 7 6 4 3 2 3 2 0 1 4 4 5 13 12 7 7 9 12 15 14 12 13 14 13 12 12 11 11 11 11 12 11 9 7 5 5 5 5 6 9 11 16 22 24 23 24 24 23 21 20 20 21 21 22 22 22 22 21 21 21 21 22 23 24 24 24 23 24 24 26 28 28 28 29 29 30 31
3 5 3 2 5 2 7 3 6 4 0 4 4 3 3 3 2 6 4 5 4 4 4 2 6 14 16 17 18 16 14 13 12 11 11 12 12 11 11 12 10 8 7 7 6 6 7 10 13 15 20 24 26 25 24 24 24 22 20 21 22 22 23 23 22 22 22 21 21 21 22 23 23 23 23 23 25 27 28 30 29 29 29 30 32 34
4 6 2 2 4 2 3 4 4 2 5 4 5 2 2 2 4 9 8 6 6 2 5 8 11 16 16 14 15 15 13 12 11 9 9 11 11 12 13 11 10 10 8 7 7 7 10 13 17 21 25 27 27 26 25 25 24 22 21 20 21 23 24 24 23 23 23 22 22 22 22 23 24 24 23 23 25 27 28 29 29 29 30 32 34 34
5 4 3 3 3 2 2 4 3 5 4 3 4 3 1 1 1 4 5 6 8 4 8 12 11 12 13 14 13 13 12 10 8 6 8 10 11 12 12 10 9 10 8 8 10 11 14 17 22 26 27 27 27 27 26 25 24 23 22 21 23 24 25 25 25 24 24 24 24 24 24 25 25 25 25 25 26 27 27 27 28 28 30 32 33 34
5 4 3 3 2 3 4 2 1 1 2 2 1 2 2 2 3 2 3 2 5 3 7 13 13 12 13 15 13 13 13 12 7 3 5 9 10 11 11 11 12 12 11 14 17 18 19 23 26 29 29 28 28 28 27 25 25 25 24 23 24 26 26 26 25 25 25 26 26 26 26 27 27 27 27 28 29 29 28 27 27 27 28 31 32 32
6 3 4 4 1 2 5 2 2 2 2 4 4 4 3 3 4 2 4 1 3 3 8 12 15 16 15 15 15 14 13 11 7 4 4 8 11 12 12 15 18 18 16 19 22 22 23 26 29 30 31 30 27 27 27 27 27 27 25 23 24 25 26 26 25 25 25 24 24 24 25 25 26 26 26 27 28 28 28 28 28 27 28 30 30 30
8 3 3 5 2 2 4 3 2 2 3 5 5 4 2 1 2 2 5 1 4 6 9 11 13 16 16 17 17 16 12 9 8 5 5 10 13 13 13 14 17 20 21 23 25 24 24 27 29 30 31 30 27 26 27 28 29 28 25 24 25 26 27 26 25 25 25 23 22 22 22 22 23 23 23 23 23 24 25 26 27 28 29 30 31 31
7 4 4 5 3 3 4 2 2 2 3 4 4 3 3 1 2 5 2 5 5 8 11 13 14 14 15 16 15 13 10 8 9 8 8 11 14 15 16 16 17 20 22 23 24 24 25 27 29 29 30 30 28 28 30 30 30 29 26 26 27 28 27 25 24 24 23 23 22 22 23 23 24 24 25 25 24 24 24 24 26 28 29 30 31 32
4 3 3 4 4 3 4 2 1 3 4 5 4 3 3 0 5 4 5 6 7 10 11 14 15 13 14 14 10 6 3 5 9 10 11 13 14 14 18 21 22 23 23 23 24 25 26 27 28 28 28 29 29 29 31 32 31 28 27 27 26 25 24 24 23 23 23 23 23 23 23 24 25 26 27 26 26 26 26 25 26 28 29 30 31 32
2 2 1 3 4 3 3 3 0 3 4 5 3 2 2 2 2 3 5 3 10 12 11 13 14 12 11 9 6 6 8 10 12 12 12 14 14 13 16 21 22 21 22 23 25 27 28 27 27 27 27 28 29 30 31 31 29 26 25 25 25 24 24 25 26 26 26 26 25 25 25 25 25 26 26 25 25 26 26 25 26 28 29 30 31 32
4 3 1 2 3 3 2 3 2 3 4 5 4 1 1 3 4 5 2 5 8 12 12 12 11 9 9 9 9 11 13 14 13 12 12 13 13 14 17 20 20 20 22 23 24 27 29 27 26 27 26 27 29 30 30 30 28 26 26 26 27 28 27 28 30 30 30 30 29 29 28 27 26 26 25 24 25 26 27 25 25 28 29 30 31 32
2 3 3 3 2 3 3 2 3 4 4 3 4 3 4 4 4 5 6 6 7 10 11 10 8 8 10 12 13 14 15 14 13 12 13 13 12 13 16 19 21 22 23 24 24 27 29 28 26 27 27 28 29 29 30 30 29 28 27 28 29 29 30 31 32 33 32 32 32 32 32 31 30 29 28 27 27 28 28 27 27 28 29 30 31 31
1 3 4 2 1 2 3 4 4 2 2 1 2 3 2 2 3 4 6 7 7 7 9 9 10 10 13 15 15 14 13 13 12 12 13 12 12 13 16 19 22 24 25 25 26 28 29 29 28 28 27 27 28 29 29 31 31 29 27 27 28 29 31 33 33 33 33 33 33 34 34 35 34 33 32 31 31 31 30 29 29 29 29 30 31 31
1 2 3 3 2 2 1 1 1 2 3 4 4 3 3 5 4 5 6 7 6 5 6 9 11 12 14 16 15 13 12 13 13 12 12 12 12 14 18 20 22 25 26 26 26 28 29 29 29 28 27 26 27 28 28 29 31 30 29 29 30 30 31 33 33 32 32 33 33 34 35 36 36 36 36 35 35 33 31 29 29 29 28 28 29 29
1 1 2 4 3 2 2 1 1 3 4 5 6 6 6 6 5 4 6 6 6 7 8 9 12 14 13 14 15 14 13 13 14 12 11 10 11 14 18 20 21 24 26 26 27 28 29 27 26 26 26 25 26 27 27 28 29 31 31 32 31 31 31 32 32 31 30 31 32 33 35 35 35 36 36 36 37 36 34 31 30 28 27 27 27 28
2 3 3 3 2 2 2 2 3 5 5 4 6 6 6 7 6 6 6 7 8 10 9 9 12 13 11 12 14 15 14 12 13 13 11 9 10 13 17 20 22 24 26 27 28 29 27 26 26 25 25 25 26 26 26 27 28 29 29 29 29 29 29 30 30 30 29 30 32 32 33 34 34 35 35 35 35 36 35 34 33 31 28 26 25 26
1 3 3 3 4 4 3 5 6 7 6 5 5 5 5 6 8 7 8 9 10 11 10 10 10 11 12 12 12 14 14 11 10 11 11 9 8 13 17 21 23 25 25 27 28 29 28 27 27 27 26 26 26 26 25 25 26 26 25 25 25 26 28 29 29 29 29 29 30 31 31 31 32 33 33 33 33 33 33 33 34 32 30 27 26 26
2 3 3 5 6 4 4 6 7 6 4 2 4 6 6 7 9 9 8 9 10 11 10 10 10 12 14 15 14 14 13 10 9 11 11 10 11 15 19 23 24 24 25 27 28 28 28 28 28 27 26 25 26 26 25 24 24 23 23 23 23 23 26 28 28 29 28 27 28 29 29 30 30 31 32 32 31 31 31 31 31 31 30 28 27 26
1 4 4 5 4 3 5 6 6 6 5 4 5 6 6 7 9 9 9 9 10 10 11 12 12 12 12 13 16 17 14 12 14 15 11 11 15 18 20 23 25 25 26 27 28 27 27 27 26 25 24 24 25 26 25 25 25 25 25 25 24 24 24 25 26 27 26 25 25 25 26 27 28 28 29 30 29 29 29 28 28 28 28 27 26 26
Wind_Direction
155 198 219 203 212 199 195 185 192 213 203 208 219 225 238 231 252 237 233 254 199 184 230 206 217 229 164 162 158 146 165 154 141 140 143 148 142 139 137 134 141 142 148 151 150 154 151 149 149 154 160 157 164 171 168 168 170 168 169 169 166 166 172 177 184 190 193 200 212 226 241 264 286 290 293 292 290 292 296 305 310 302 291 285 285 286
163 204 224 205 205 201 196 187 190 217 228 232 228 268 282 249 254 259 249 256 209 188 232 201 210 239 182 160 158 142 152 162 148 147 152 148 141 138 131 129 133 131 133 136 137 146 149 147 143 146 154 150 147 160 168 168 166 166 163 160 158 161 172 177 179 185 192 203 214 226 245 277 300 309 313 313 316 313 312 311 295 284 280 282 286 288
198 222 220 203 201 194 197 194 193 218 231 233 221 268 280 252 274 283 268 261 214 196 231 188 197 235 194 155 164 151 156 176 166 160 157 150 144 140 136 134 135 135 138 140 136 143 148 140 131 136 146 138 125 139 176 172 162 162 159 156 157 157 165 171 175 182 184 195 206 224 258 292 303 311 315 317 323 319 318 315 294 287 287 287 290 291
200 226 208 200 187 181 200 201 195 221 236 223 207 231 257 244 262 277 280 268 217 196 194 167 194 241 154 120 167 161 159 169 167 156 143 142 144 143 142 140 143 146 147 145 142 147 150 139 131 133 137 138 134 140 189 191 163 156 154 153 157 156 158 163 173 183 184 207 237 259 285 306 308 310 310 306 306 305 310 308 295 294 292 287 288 289
222 218 186 190 189 183 198 209 193 204 238 233 204 218 242 238 215 226 273 295 243 219 124 127 171 268 73 124 164 166 148 144 136 123 110 114 132 134 134 134 138 144 145 147 150 157 152 141 137 136 139 148 141 146 194 202 164 151 150 152 157 158 158 159 170 187 208 268 290 296 307 330 336 333 328 319 315 316 319 311 301 301 298 291 290 290
239 219 173 184 201 186 193 217 199 178 214 251 221 223 231 230 234 242 277 320 288 252 228 132 151 268 293 137 153 144 118 120 120 127 128 127 133 133 130 130 129 130 139 147 150 149 137 132 138 145 153 151 137 151 192 191 155 147 150 152 156 155 155 157 149 150 207 289 288 274 274 311 332 331 331 329 328 331 334 325 316 319 317 308 303 305
214 209 177 184 198 193 201 221 209 175 184 244 230 220 222 219 234 250 264 284 224 242 236 163 165 237 308 148 157 146 126 125 129 136 141 139 139 139 134 133 133 132 139 143 140 133 122 126 136 147 152 143 131 141 154 140 126 130 138 145 153 154 157 165 162 163 191 214 220 234 246 258 275 302 320 326 326 329 337 336 327 329 335 330 322 321
184 196 188 187 192 197 206 218 212 176 170 235 226 192 196 203 218 236 243 239 222 245 287 193 168 128 148 205 170 143 130 134 145 146 148 144 142 145 140 138 140 143 145 141 134 124 119 123 127 132 134 131 127 125 121 112 108 111 115 121 129 130 132 138 147 162 177 187 197 204 221 257 273 301 325 331 331 333 339 344 341 338 341 340 334 327
177 195 194 189 194 203 205 214 209 175 186 240 221 171 177 187 208 227 225 239 238 196 284 236 173 110 178 211 152 138 136 146 158 157 154 151 152 151 143 140 141 143 141 135 131 123 120 120 119 118 118 116 114 110 106 103 104 106 106 105 105 103 101 100 101 105 102 96 87 80 65 39 6 339 332 332 336 343 347 350 353 351 348 344 338 330
186 199 195 190 197 206 205 214 208 183 205 238 210 194 188 154 196 224 205 223 307 62 240 225 176 115 166 176 142 146 153 157 162 162 156 153 160 158 146 144 143 137 133 127 123 118 116 116 114 111 108 105 104 102 101 99 96 97 95 94 93 91 92 93 92 93 89 84 80 74 65 53 41 23 7 356 355 358 358 357 1 358 351 343 335 328
213 200 197 194 198 203 201 210 207 196 212 232 202 221 236 79 5 284 205 136 85 293 251 221 191 138 140 208 174 165 174 162 154 154 157 159 163 157 145 144 141 132 128 120 114 108 105 106 106 105 101 99 100 100 98 94 89 89 88 89 86 82 84 86 86 88 84 79 75 70 66 58 50 45 36 25 14 9 6 3 0 354 347 339 331 324
238 211 203 200 193 195 195 206 213 207 216 225 202 190 204 320 328 345 335 49 125 248 259 223 193 143 134 210 195 194 195 165 160 161 164 166 161 150 142 139 134 127 122 117 114 108 103 100 97 98 95 94 98 99 97 95 90 86 85 84 80 74 75 77 77 78 75 72 68 60 56 51 44 40 35 26 16 11 7 2 358 352 344 336 328 323
238 229 216 202 194 191 187 198 217 217 216 216 201 151 145 261 282 194 255 236 174 241 256 192 165 160 168 196 245 296 205 175 174 167 164 160 149 145 142 135 128 125 123 118 114 111 107 100 96 95 93 91 93 94 95 95 91 85 81 79 76 70 68 67 66 66 63 62 57 50 45 40 37 33 28 20 13 11 6 2 358 352 343 334 329 326
236 261 230 203 198 191 184 183 198 213 211 203 192 156 153 162 162 198 228 223 191 240 262 198 164 209 258 44 331 295 181 158 132 133 149 143 134 137 136 128 124 120 118 116 112 109 104 102 101 97 94 92 89 88 90 91 89 85 79 74 73 71 67 63 59 56 57 56 51 45 38 33 33 27 22 18 15 15 10 2 357 349 340 332 329 329
208 246 223 200 201 186 186 190 182 178 193 203 171 134 154 164 153 191 201 174 203 230 290 345 150 213 247 13 334 329 136 126 112 113 122 121 121 127 124 121 121 115 114 113 106 105 102 101 101 98 96 95 90 86 85 82 82 81 77 74 74 72 68 61 58 57 58 57 51 44 38 33 33 27 23 23 19 18 14 3 353 344 339 335 333 331
198 237 232 199 209 187 183 193 175 161 189 216 141 126 178 181 147 151 187 174 173 193 325 3 50 335 49 46 31 75 100 109 122 126 126 130 130 128 125 123 121 118 116 112 107 105 103 101 100 98 97 94 89 87 83 78 75 73 73 74 72 68 64 61 64 66 63 56 48 42 38 33 33 34 31 30 27 24 18 6 354 347 347 346 342 339
182 246 257 185 208 205 183 180 177 175 184 184 156 174 195 163 131 117 202 193 112 120 267 325 109 109 104 62 52 78 88 96 115 121 124 132 132 128 127 126 124 122 119 115 114 111 108 107 103 99 99 96 92 89 86 79 70 67 69 73 74 71 68 67 67 67 60 52 46 45 46 46 43 42 36 34 33 27 18 12 4 358 356 355 351 348
158 242 262 181 199 227 191 169 180 189 162 154 202 205 159 121 107 99 153 309 60 122 267 299 147 169 171 116 75 91 93 99 114 118 119 122 127 126 125 127 124 122 120 115 114 113 112 109 102 99 99 96 93 90 86 77 68 73 78 81 84 79 73 69 65 66 64 57 56 56 57 58 54 50 45 41 40 34 28 22 14 5 1 2 1 359
144 223 270 203 194 219 187 157 183 215 151 150 189 180 135 149 191 102 157 198 148 148 310 86 168 187 181 164 148 134 133 135 127 124 128 128 127 126 127 130 125 119 116 111 111 112 109 105 101 101 98 93 89 88 88 88 89 96 93 88 87 79 71 69 68 72 70 63 63 62 61 61 59 58 53 47 43 39 35 28 19 13 12 14 14 9
123 123 269 242 201 183 166 167 190 215 53 82 139 159 137 157 165 164 162 159 157 161 130 133 190 240 313 185 174 159 151 146 138 133 130 126 123 124 128 128 120 115 113 109 110 107 102 102 101 100 97 92 90 91 97 103 98 95 94 89 82 74 71 74 75 75 71 65 63 62 63 61 60 60 55 47 41 37 36 31 23 21 23 24 22 18
139 154 240 283 231 170 191 212 185 177 154 107 139 192 174 112 131 155 158 134 136 145 140 133 210 257 229 175 176 157 141 136 137 132 126 123 119 116 116 114 110 109 109 107 107 103 98 99 99 98 97 96 96 97 98 96 92 96 97 89 80 78 80 80 78 74 69 64 59 58 60 57 54 53 49 42 37 35 35 32 26 25 28 28 28 25
154 172 207 286 241 180 233 242 164 159 167 155 161 189 168 131 118 128 242 282 116 130 154 153 184 243 243 195 168 153 144 141 137 131 128 128 124 118 111 107 107 107 106 105 103 98 96 99 100 99 102 106 107 104 97 93 97 101 99 93 90 87 83 80 78 73 67 63 60 59 59 55 48 42 37 35 33 31 34 35 31 31 33 31 32 31
139 137 187 242 230 208 258 262 178 162 155 141 152 178 147 119 125 143 205 257 190 119 125 117 147 231 271 230 167 152 147 144 139 133 130 129 127 123 115 112 112 112 113 113 109 105 106 107 103 100 106 116 117 110 103 100 102 103 101 101 99 88 82 81 78 71 67 67 64 60 58 53 44 37 34 35 35 34 36 39 39 41 42 39 40 40
160 146 179 239 281 300 316 304 235 170 136 135 175 172 144 145 163 165 183 190 173 168 134 88 96 239 282 199 151 143 138 137 136 133 131 131 129 126 125 125 125 123 122 115 107 108 107 102 100 104 114 125 126 119 112 108 106 102 100 100 95 88 83 80 76 72 73 71 64 59 57 51 45 42 42 43 44 44 46 48 51 53 51 47 45 45
207 190 131 135 64 357 358 327 272 234 151 161 187 163 158 164 163 178 205 170 190 213 158 132 139 218 213 152 142 139 137 136 137 134 131 130 131 131 129 130 130 127 118 101 97 100 99 99 105 114 122 127 127 122 119 116 107 97 97 97 93 87 82 78 78 79 77 72 66 62 59 55 52 50 50 49 49 50 52 55 57 57 56 52 49 48
202 186 126 135 142 153 175 202 221 205 186 200 143 140 149 156 163 178 174 167 209 236 118 127 143 146 152 150 147 148 146 143 141 137 133 133 137 138 132 129 128 119 108 102 104 105 105 114 122 125 127 129 125 123 125 120 105 99 99 96 90 86 83 82 81 79 77 72 68 65 60 56 54 51 51 52 53 54 55 56 58 59 58 57 55 54
150 177 164 143 148 174 188 221 232 154 146 180 170 147 130 134 156 147 119 170 190 138 62 141 147 140 156 161 154 153 149 146 147 146 143 142 142 139 130 124 120 115 116 116 116 117 116 120 130 135 138 137 132 131 127 113 104 103 101 95 91 89 88 86 82 79 78 74 69 64 59 55 53 53 54 55 58 61 60 58 60 62 61 60 59 58
109 191 193 146 152 174 156 88 49 80 97 90 75 60 45 70 115 135 164 205 168 130 81 193 151 145 165 170 158 157 156 152 155 153 147 144 141 134 123 120 121 122 125 125 122 125 123 121 132 139 143 143 140 133 118 106 104 104 101 98 97 95 92 88 84 80 77 74 69 62 58 56 55 56 58 59 63 66 66 64 62 62 63 62 61 59
119 181 203 155 145 137 110 93 78 83 91 72 60 45 17 37 106 146 205 209 174 165 182 177 166 160 168 171 163 162 159 153 151 147 141 138 134 129 124 124 126 126 128 131 130 130 131 130 134 142 151 154 142 121 109 106 105 103 100 98 97 97 95 90 84 79 76 74 69 63 60 60 59 60 61 63 64 64 65 64 61 60 61 61 60 59
111 180 210 149 105 54 62 88 89 91 97 68 45 28 8 23 95 140 191 182 158 176 161 159 162 156 156 161 156 149 142 136 137 136 137 138 134 131 130 130 133 134 134 136 136 139 148 138 137 150 159 149 124 114 111 109 106 103 100 97 96 96 95 91 85 81 78 74 70 66 67 66 64 64 63 63 63 62 62 62 60 59 59 59 59 58
97 183 207 121 84 16 2 55 81 90 98 86 48 18 12 22 47 60 92 98 71 75 132 140 134 97 110 127 126 130 132 132 138 142 142 142 137 134 135 135 137 138 139 144 146 150 154 135 135 142 137 120 115 115 114 111 107 104 99 95 95 94 92 89 86 83 79 75 72 71 72 69 67 66 64 62 62 62 61 61 61 60 59 59 58 58
79 127 116 86 88 347 324 19 77 77 73 67 40 15 10 13 28 24 350 23 119 125 126 128 133 144 142 130 125 135 142 141 147 148 143 141 140 139 138 137 140 145 147 148 138 128 127 127 132 130 120 116 118 117 115 113 109 104 100 97 93 93 91 87 84 82 79 76 75 76 75 72 70 67 64 62 62 61 62 63 62 60 59 58 57 57
82 110 109 97 106 294 302 349 76 62 45 12 339 352 349 328 127 62 354 358 109 132 139 156 175 162 145 139 140 148 153 152 152 150 146 144 144 142 139 141 145 146 136 114 100 97 90 95 110 118 118 119 119 117 117 115 110 106 103 99 94 91 89 86 84 83 80 77 78 78 77 75 73 69 67 65 64 63 64 64 63 60 59 59 58 59
56 97 108 99 114 238 295 356 61 54 287 253 263 215 209 239 131 97 49 7 38 125 149 149 149 148 146 149 152 154 157 155 150 153 152 147 144 142 142 145 142 128 111 101 98 93 87 90 95 102 111 116 117 117 115 112 110 109 105 99 95 92 89 87 86 84 82 80 80 79 79 78 76 72 70 68 66 66 66 66 65 64 63 62 61 60
65 83 80 49 100 162 313 40 80 221 233 252 289 271 203 213 124 98 75 27 10 51 120 111 133 150 148 145 145 142 144 144 141 147 147 141 140 141 143 144 132 118 114 110 103 93 90 95 97 101 109 115 117 116 114 112 112 109 104 100 96 93 90 88 86 84 83 83 82 82 82 82 81 79 76 74 71 69 68 68 67 66 66 65 64 62
102 102 96 61 88 125 56 74 143 227 259 328 341 342 53 238 195 92 65 12 358 38 124 127 134 141 132 127 131 131 132 127 115 118 135 139 142 142 143 141 127 123 124 115 106 95 91 96 103 109 115 118 118 117 115 114 111 105 102 100 97 94 92 89 85 84 84 84 84 85 86 86 85 83 80 79 76 73 70 69 69 69 69 69 68 65
107 110 92 67 69 122 109 94 91 344 326 332 313 256 184 196 229 170 122 313 330 38 121 133 132 131 129 129 130 129 125 117 100 94 134 139 135 131 127 122 116 117 117 110 103 96 96 103 110 115 119 119 119 118 117 115 110 104 101 99 96 95 92 89 87 87 86 86 86 87 87 87 86 84 82 80 77 75 72 71 70 70 71 71 69 67
82 110 131 117 77 94 102 84 41 48 265 247 245 244 208 204 242 167 109 305 296 101 126 140 139 139 138 134 134 133 128 125 132 161 161 138 127 120 116 116 119 121 117 111 103 96 100 109 114 117 120 119 119 119 118 115 111 107 103 101 98 96 94 91 91 91 90 89 89 89 89 88 87 86 84 81 79 77 74 71 70 70 72 72 70 68
62 50 96 102 89 87 102 111 149 177 230 239 247 274 278 247 280 66 82 284 236 143 131 140 145 147 146 144 145 144 142 145 156 174 171 143 129 124 122 120 120 120 116 113 109 104 107 113 116 118 119 118 118 119 118 116 112 109 105 103 101 98 96 94 93 93 93 93 93 93 92 91 90 88 86 85 82 80 77 74 72 72 73 73 72 70
52 23 50 92 116 126 106 107 204 211 238 239 243 283 275 242 64 83 131 237 209 151 143 148 152 153 150 149 151 153 158 164 161 163 160 139 126 124 126 124 120 118 115 115 114 112 113 116 117 117 117 118 119 119 116 114 111 108 106 106 103 99 97 96 95 96 97 98 98 97 95 93 92 90 89 88 86 85 84 81 78 76 76 75 74 73
51 33 65 115 130 130 120 115 260 263 249 229 220 239 236 158 73 113 209 218 170 154 154 151 151 155 154 152 153 158 150 125 132 143 143 131 122 121 124 124 122 121 119 119 120 117 116 116 117 117 118 121 121 119 116 113 111 110 110 107 102 99 99 99 100 101 103 102 101 99 96 94 93 92 91 91 90 90 89 86 83 80 79 77 76 75
111 81 83 128 133 137 131 118 225 276 246 204 195 241 216 125 123 217 230 175 146 149 148 146 148 150 148 141 127 118 112 111 121 134 135 129 125 124 125 124 121 119 120 120 120 118 116 116 116 118 120 123 123 121 119 116 114 114 113 107 102 104 105 103 101 101 100 100 99 99 97 96 95 95 94 93 93 93 91 90 87 84 82 80 78 76
156 135 135 164 149 124 92 99 152 231 218 170 144 124 165 164 197 211 152 104 133 142 140 141 143 136 130 123 116 119 121 122 129 134 130 127 125 124 127 125 120 118 120 120 119 118 117 116 115 117 121 124 124 123 122 120 117 115 112 108 108 110 108 104 101 98 96 95 94 94 95 95 95 95 94 94 93 93 92 91 89 86 83 82 79 76
176 144 165 199 173 131 132 171 203 221 229 188 143 165 213 209 194 171 137 121 138 146 143 140 134 132 131 128 126 128 128 130 135 134 130 128 126 126 127 125 121 121 122 122 120 119 119 116 114 115 119 123 124 124 124 122 118 115 112 113 116 115 110 105 102 98 96 94 92 91 91 91 92 92 92 92 92 91 89 88 87 85 82 80 78 75
240 157 154 160 163 158 171 209 233 237 255 237 126 161 192 133 116 131 130 131 142 152 149 139 134 136 134 130 130 132 132 134 137 136 133 131 130 131 130 127 126 126 126 125 123 122 120 119 118 117 118 122 124 125 126 125 121 118 117 121 123 120 113 108 104 100 97 95 93 92 91 90 89 88 87 87 87 87 87 86 86 84 81 79 78 75
68 99 97 107 158 171 92 19 348 48 62 62 65 71 80 86 93 101 106 114 121 124 131 135 135 137 137 134 134 133 135 138 137 135 135 134 132 132 130 128 129 130 129 127 126 125 124 121 120 120 119 122 125 126 127 127 125 121 121 124 126 123 117 111 107 104 102 99 97 95 93 91 89 87 85 83 83 83 84 84 85 84 82 80 77 74
127 144 84 89 134 148 74 47 54 76 87 88 80 72 66 65 66 82 100 108 105 105 115 127 130 133 137 137 136 135 138 140 137 133 134 133 133 134 132 131 132 133 132 131 129 128 126 123 122 122 122 124 127 128 128 129 128 126 124 125 125 124 120 115 112 110 108 105 102 99 95 93 91 89 87 84 82 81 80 80 81 82 80 78 77 75
174 137 100 85 92 102 120 148 112 78 61 61 78 87 85 79 74 77 94 104 105 107 115 123 128 132 136 136 135 133 134 138 138 135 134 131 132 134 134 134 134 133 133 133 133 131 129 126 125 126 126 127 130 131 131 131 133 134 133 130 129 126 122 120 118 117 115 112 107 103 99 97 94 92 90 87 84 82 79 76 76 77 77 77 77 77
100 94 114 125 110 97 112 134 119 90 55 39 66 88 101 105 103 97 98 105 109 113 117 121 124 127 128 130 133 131 130 133 133 130 129 128 128 130 131 132 133 133 133 134 135 134 131 129 128 128 127 129 131 132 131 132 136 140 140 140 138 132 126 124 124 122 120 116 112 108 105 102 99 96 93 91 88 86 82 79 76 76 78 79 79 80
76 114 149 135 130 148 168 160 145 123 101 101 114 113 114 116 113 110 110 113 117 121 123 120 117 119 124 130 134 130 125 124 124 124 123 121 121 126 131 132 131 131 133 134 135 135 133 132 132 131 130 130 131 130 129 130 134 136 137 141 145 142 134 130 128 125 124 120 116 114 111 108 105 102 99 96 94 92 89 86 82 81 82 82 82 81
145 178 171 139 143 183 172 153 141 121 120 145 144 129 128 125 118 119 125 125 125 127 126 123 121 120 118 122 129 131 129 128 127 123 113 107 110 115 122 129 129 129 132 133 134 133 133 134 135 133 131 132 132 130 128 129 131 130 129 131 135 139 138 136 133 130 128 125 122 119 117 115 113 109 105 101 99 97 97 94 90 86 85 84 83 81